FENGYUN 1C DEB, 31743

Orbit data source: Space-Track

FENGYUN 1C DEB, 31743 is space debris in SSO originally from a launch on Mon, 10 May 1999 UTC launched from the Taiyaun Space Center, China (TSC). Fengyun 1C debris stems from the Chinese weather satellite Fengyun-1C, which was intentionally destroyed by a Chinese anti-satellite missile in 2007. This event dramatically increased the amount of space debris, with thousands of trackable fragments posing hazards to satellites and human spaceflight. The Fengyun 1C debris cloud has become a focal point in discussions about space sustainability and the need for international regulations to prevent the creation of new debris.

Loading next visibility...
Identifier
31743, 1999-025CES
Orbit
SSO
Country
Flag of CNCN / PRC
Related business
Manufacturer
Unknown
Mission
Spacecraft
Bus & Motor
Unknown
Mass
Unknown
Launch date (UTC)
1999-05-10 (27 years ago)
Launch vehicle
Unknown
Launch site
Taiyaun Space Center, China (TSC)
Object type
Payload
Rocket body
Debris
Shape & HBR
Unknown shape, 0.1 m
Radar Cross Section
Small (<0.1 m²)

Expand to show TLE details & history
Last TLE update: 20 hours ago

TLE from 20 hours ago
0 FENGYUN 1C DEB
1 31743U 99025CES 26121.33229080  .00004273  00000-0  15777-2 0  9997
2 31743  99.1518  61.7321 0038353 170.3401 341.6826 14.32606060976382
Epoch: 2026-05-01T07:58Z
TLE epoch observation values (Epoch: 2026-05-01T07:58:29.925Z)
Latitude
27.77011°
Longitude
-92.31836°
Altitude
760.367 km
Speed
7.49 km/s
True Right ascension
16h 26m 17s
True Declination
27° 37' 43"
Sunlit
Object was in full shadow at epoch
Visualization orbit readout
Latitude
Unknown
Longitude
Unknown
Altitude
Unknown
Speed
Unknown
Apparent Right ascension
Unknown
Apparent Declination
Unknown
Sunlit
N/A
Visualization observer readout
Local Sidereal Time
11:23:52
Azimuth
Unknown
Elevation
Unknown
Doppler factor
Unknown
Orbital elements
Apogee altitude
807.651 km
Perigee altitude
752.742 km
Semi-major axis
7,158.334 km
Eccentricity
0.00384
Inclination
99.1518°
RAAN
61.7321°
Arg. of periapsis
170.3401°
True anomaly
341.54384°
Mean anomaly
341.6826°
Eccentric anomaly
341.61329°
Mean motion
3.58365 °/min
Orbital period
100.46 mins
BSTAR
0.0015777
Loading maneuver chart data...
Computing Atmospheric mass density...

Documentation

Showing up to 5 results
|